STARLINK-32336, 61004

Orbit data source: Space-Track

STARLINK-32336, 61004 is a payload satellite owned by SpaceX/Seattle (US) in LEO that was launched on Thu, 05 Sep 2024 UTC via an FALCON 9 launch vehicle from the Air Force Eastern Test Range (AFETR). Payload-class satellites include a variety of spacecraft equipped with specific instruments for various scientific and technological missions. These include communications satellites like Starlink; space stations such as the ISS; scientific satellites like the Hubble; Earth observation satellites from companies like Planet Labs, Umbra, and HawkEye 360; GPS; miniature CubeSats for education and research; and military/defense satellites.

Loading next visibility...
Identifier
61004, 2024-158Q
Orbit
LEO
Country
Flag of USUS
Related business
Manufacturer
SpaceX/Seattle
Mission
Operational Commercial Communications
Bus & Motor
STARLINK V2M, Unknown motor
Mass
730 kg wet, ~700 kg dry
Launch date (UTC)
2024-09-05 (1 year ago)
Launch vehicle
FALCON 9
Launch site
Air Force Eastern Test Range (AFETR)
Object type
Payload
Rocket body
Debris
Shape & HBR
Box + 2 Pan, 17.7 m
Radar Cross Section
33.884 m², Large (>1 m²)

Expand to show TLE details & history
Last TLE update: 12 hours ago

TLE from 12 hours ago
0 STARLINK-32336
1 61004U 24158Q   25310.19528453  .00001508  00000-0  63049-4 0  9999
2 61004  53.1621 279.1566 0001314  82.7613 277.3537 15.30198333 66746
Epoch: 2025-11-06T04:41Z
TLE epoch observation values (Epoch: 2025-11-06T04:41:12.583Z)
Latitude
-0.00003°
Longitude
163.19706°
Altitude
476.005 km
Speed
7.629 km/s
True Right ascension
18h 36m 37s
True Declination
0° 00' 00"
Sunlit
Object was in daylight at epoch
Visualization orbit readout
Latitude
Unknown
Longitude
Unknown
Altitude
Unknown
Speed
Unknown
Apparent Right ascension
Unknown
Apparent Declination
Unknown
Sunlit
N/A
Visualization observer readout
Local Sidereal Time
12:55:06
Azimuth
Unknown
Elevation
Unknown
Doppler factor
Unknown
Orbital elements
Apogee altitude
476.377 km
Perigee altitude
474.576 km
Semi-major axis
6,853.613 km
Eccentricity
0.00013
Inclination
53.1621°
RAAN
279.1566°
Arg. of periapsis
82.7613°
True anomaly
277.33877°
Mean anomaly
277.3537°
Eccentric anomaly
277.34623°
Mean motion
3.82528 °/min
Orbital period
94.11 mins
BSTAR
0.000063049
Loading maneuver chart data...
Computing Atmospheric mass density...
Loading historical data...
Loading historical data...
Loading historical data...
Loading historical data...
Loading historical data...
Loading historical data...
Loading historical data...

Documentation

Showing up to 5 results
|